Regional Weather Roundup
Issued by NWS

Home | Current Version | Previous Version | Text Only | Print | Product List | Glossary On
Versions: 1 2 3 4 5 6 7 8 9 10 11 12 13 14 15 16 17 18 19 20 21 22 23 24 25 26 27 28 29 30 31 32 33 34 35 36 37 38 39 40 41 42 43 44 45 46 47 48 49 50
000
ASUS43 KDMX 210206
RWRIA

WEATHER ROUNDUP FOR IOWA
NATIONAL WEATHER SERVICE DES MOINES IA
800 PM CST MON FEB 20 2017

NOTE: "FAIR" INDICATES FEW OR NO CLOUDS BELOW 12,000 FEET WITH NO
SIGNIFICANT WEATHER AND/OR OBSTRUCTIONS TO VISIBILITY.

* - THESE STATIONS ARE NOT NWS STATIONS...THUS NOT UNDER NWS
QUALITY CONTROL.  THEY ALSO DO NOT REPORT WEATHER SUCH
AS PRECIPITATION OR FOG.

IAZ001>003-012>014-020>022-031>034-043>046-210300-
   NORTHWEST IOWA

CITY           SKY/WX    TMP DP  RH WIND       PRES   REMARKS
CARROLL *      MOCLDY    48  48 100 W8        29.89R
CHEROKEE *     CLEAR     44  44  99 W5        29.89R
DENISON *      CLEAR     46  43  87 CALM      29.89R
LE MARS *      CLEAR     43  41  93 W6        29.91R
SHELDON *      CLEAR     45  45 100 W10       29.87R
SIOUX CITY     CLEAR     47  42  83 W6        29.91R
SPENCER        CLEAR     46  42  86 W15       29.86R
STORM LAKE *   CLEAR     45  43  93 W12       29.87R
$$

IAZ055>058-069>071-079>083-090>094-210300-
   SOUTHWEST IOWA

CITY           SKY/WX    TMP DP  RH WIND       PRES   REMARKS
ATLANTIC *     CLOUDY    52  48  87 NW8       29.91R
CLARINDA *     MOCLDY    55  55 100 SW5         N/A
COUNCIL BLFS * CLEAR     50  46  87 NW6       29.92R
CRESTON *      CLOUDY    55  55 100 W8        29.89R
HARLAN  *      CLEAR     46  45  93 NW7       29.94R
LAMONI         PTCLDY    58  55  90 SW7       29.87R
RED OAK *      CLOUDY    55  48  76 NW8       29.91R
SHENANDOAH *   CLOUDY    57  52  82 NW7G13    29.91R
$$

IAZ047>049-059>061-072>074-084-210300-
   CENTRAL IOWA

CITY           SKY/WX    TMP DP  RH WIND       PRES   REMARKS
AMES           CLOUDY    56  56 100 S7        29.85R
ANKENY *       CLOUDY    59  57  94 SW7       29.87R
BOONE *        CLOUDY    57  57 100 SW9       29.84S FOG
CHARITON *     CLOUDY    55  55 100 S6        29.86F
DES MOINES     CLOUDY    60  56  86 SW8       29.86R
GRINNELL*      CLOUDY    56  55  94 S7        29.87F
KNOXVILLE *    CLOUDY    59  57  94 S6        29.85S
MARSHALLTOWN   LGT RAIN  57  57 100 S9        29.83S
NEWTON *       CLOUDY    57  55  94 S8        29.85S
PELLA *        CLOUDY    58  56  94 CALM      29.88R
PERRY *        CLOUDY    55  53  94 W16       29.88R FOG
$$

IAZ004>006-015-016-023>025-035-036-210300-
   NORTH CENTRAL IOWA

CITY           SKY/WX    TMP DP  RH WIND       PRES   REMARKS
ALGONA *       CLOUDY    48  46  93 W13G18    29.84R
CLARION *      MOCLDY    50  50 100 W14       29.84R
ESTHERVILLE    CLOUDY    47  44  90 W23       29.83R
FORT DODGE *   CLOUDY    48  45  87 W7        29.86R
MASON CITY     CLOUDY    53  51  93 W15G29    29.83R
FOREST CITY *    N/A     48  48 100 W7        29.82R
IOWA FALLS *   CLOUDY    55  55  97 S12       29.85R FOG
$$

IAZ007>011-017>019-026>030-037>042-050>054-066-210300-
   NORTHEAST IOWA

CITY           SKY/WX    TMP DP  RH WIND       PRES   REMARKS
CEDAR RAPIDS   CLOUDY    54  54 100 S8        29.87R
CHARLES CITY * CLOUDY    55  55 100 S18G25    29.79F FOG
CLINTON *      LGT RAIN  56  55  97 CALM      29.90R
DECORAH *      CLOUDY    55  54  94 S9        29.80S FOG
DUBUQUE        CLOUDY    54  53  97 S7        29.86S FOG
MONTICELLO *   CLOUDY    55  54  94 CALM      29.86S FOG
OELWEIN *      CLOUDY    54  54 100 S13       29.84F FOG
WATERLOO       CLOUDY    55  54  96 S9        29.83S FOG
$$

IAZ064-065-067-068-078-210300-
   EAST CENTRAL IOWA

CITY           SKY/WX    TMP DP  RH WIND       PRES   REMARKS
DAVENPORT      RAIN      58  56  93 S5        29.90R FOG
IOWA CITY      LGT RAIN  60  56  86 SW5       29.89R
MUSCATINE *    LGT RAIN  61  57  88 SW13G21   29.88R
QUAD CITIES    CLOUDY    64  56  75 SW10      29.89R
$$

IAZ062-063-075>077-085>089-095>099-210300-
   SOUTHEAST IOWA

CITY           SKY/WX    TMP DP  RH WIND       PRES   REMARKS
BURLINGTON     LGT RAIN  61  59  93 W7        29.89R
FAIRFIELD *    CLOUDY    61  55  82 SW6       29.87S
KEOKUK *       CLOUDY    61  59  94 S5        29.89S
OTTUMWA        CLOUDY    59  56  89 SW6       29.87R
WASHINGTON *   CLOUDY    61  57  88 SW6       29.88F
$$

ABBREVIATIONS USED IN REMARKS
   TC - TEMPERATURES IN CELSIUS
  WCI - WIND CHILL INDEX
   HX - HEAT INDEX
  VSB - VISIBILITY
$$




USA.gov is the U.S. government's official web portal to all federal, state and local government web resources and services.